TimeCST,TemperatureF,Dew PointF,Humidity,Sea Level PressureIn,VisibilityMPH,Wind Direction,Wind SpeedMPH,Gust SpeedMPH,PrecipitationIn,Events,Conditions,WindDirDegrees,DateUTC
12:13 AM,15.8,10.4,79,30.09,10.0,Calm,Calm,-,N/A,,Mostly Cloudy,0,2013-01-27 06:13:00
12:32 AM,15.8,8.6,73,30.08,10.0,South,5.8,-,N/A,,Scattered Clouds,170,2013-01-27 06:32:00
12:53 AM,14.0,8.6,79,30.08,10.0,South,5.8,-,N/A,,Clear,170,2013-01-27 06:53:00
1:13 AM,12.2,8.6,85,30.07,10.0,SSE,4.6,-,N/A,,Clear,160,2013-01-27 07:13:00
1:32 AM,12.2,6.8,79,30.07,10.0,Calm,Calm,-,N/A,,Clear,0,2013-01-27 07:32:00
1:53 AM,12.2,6.8,79,30.07,10.0,Calm,Calm,-,N/A,,Clear,0,2013-01-27 07:53:00
2:13 AM,12.2,6.8,79,30.06,10.0,SSE,3.5,-,N/A,,Clear,160,2013-01-27 08:13:00
2:33 AM,10.4,6.8,85,30.06,10.0,SE,3.5,-,N/A,,Clear,140,2013-01-27 08:33:00
2:53 AM,10.4,6.8,85,30.06,10.0,SSE,4.6,-,N/A,,Clear,160,2013-01-27 08:53:00
3:13 AM,10.4,6.8,85,30.06,10.0,Calm,Calm,-,N/A,,Clear,0,2013-01-27 09:13:00
3:33 AM,6.8,3.2,85,30.05,10.0,SE,4.6,-,N/A,,Clear,140,2013-01-27 09:33:00
3:52 AM,6.8,3.2,85,30.04,10.0,SE,4.6,-,N/A,,Clear,130,2013-01-27 09:52:00
4:13 AM,8.6,5.0,85,30.03,10.0,SSE,5.8,-,N/A,,Clear,150,2013-01-27 10:13:00
4:33 AM,8.6,3.2,79,30.03,10.0,SSE,3.5,-,N/A,,Clear,150,2013-01-27 10:33:00
4:52 AM,8.6,5.0,85,30.04,10.0,Calm,Calm,-,N/A,,Clear,0,2013-01-27 10:52:00
5:13 AM,3.2,1.4,92,30.04,10.0,Calm,Calm,-,N/A,,Clear,0,2013-01-27 11:13:00
5:33 AM,3.2,1.4,92,30.03,10.0,Calm,Calm,-,N/A,,Clear,0,2013-01-27 11:33:00
5:52 AM,1.4,-0.4,92,30.03,10.0,SE,3.5,-,N/A,,Clear,130,2013-01-27 11:52:00
6:13 AM,3.2,-0.4,85,30.02,10.0,SE,4.6,-,N/A,,Clear,140,2013-01-27 12:13:00
6:33 AM,3.2,1.4,92,30.02,10.0,SSE,3.5,-,N/A,,Clear,150,2013-01-27 12:33:00
6:53 AM,3.2,1.4,92,30.02,10.0,Calm,Calm,-,N/A,,Clear,0,2013-01-27 12:53:00
7:13 AM,3.2,-0.4,85,30.01,10.0,Calm,Calm,-,N/A,,Clear,0,2013-01-27 13:13:00
7:33 AM,1.4,-2.2,85,30.01,10.0,Calm,Calm,-,N/A,,Clear,0,2013-01-27 13:33:00
7:52 AM,1.4,-0.4,92,30.02,10.0,Calm,Calm,-,N/A,,Clear,0,2013-01-27 13:52:00
8:13 AM,1.4,-2.2,85,30.02,10.0,Calm,Calm,-,N/A,,Clear,0,2013-01-27 14:13:00
8:33 AM,1.4,-0.4,92,30.02,10.0,Calm,Calm,-,N/A,,Clear,0,2013-01-27 14:33:00
8:52 AM,3.2,1.4,92,30.02,10.0,Calm,Calm,-,N/A,,Clear,0,2013-01-27 14:52:00
9:13 AM,8.6,5.0,85,30.01,10.0,Calm,Calm,-,N/A,,Clear,0,2013-01-27 15:13:00
9:33 AM,8.6,6.8,92,30.00,10.0,Calm,Calm,-,N/A,,Clear,0,2013-01-27 15:33:00
9:52 AM,12.2,8.6,85,30.00,10.0,Calm,Calm,-,N/A,,Clear,0,2013-01-27 15:52:00
10:13 AM,15.8,10.4,79,30.00,10.0,Calm,Calm,-,N/A,,Clear,0,2013-01-27 16:13:00
10:33 AM,19.4,10.4,68,29.99,10.0,Calm,Calm,-,N/A,,Clear,0,2013-01-27 16:33:00
10:52 AM,21.2,12.2,68,29.99,10.0,SSE,6.9,-,N/A,,Clear,150,2013-01-27 16:52:00
11:13 AM,23.0,14.0,68,29.98,10.0,SSE,4.6,-,N/A,,Clear,150,2013-01-27 17:13:00
11:33 AM,24.8,15.8,69,29.97,10.0,SSE,6.9,-,N/A,,Clear,160,2013-01-27 17:33:00
11:53 AM,26.6,15.8,64,29.96,10.0,SSE,6.9,-,N/A,,Clear,160,2013-01-27 17:53:00
12:13 PM,26.6,15.8,64,29.95,10.0,SSE,8.1,-,N/A,,Clear,150,2013-01-27 18:13:00
12:33 PM,28.4,17.6,64,29.94,10.0,SSE,5.8,-,N/A,,Clear,150,2013-01-27 18:33:00
12:53 PM,28.4,17.6,64,29.93,10.0,SSE,8.1,-,N/A,,Clear,150,2013-01-27 18:53:00
1:13 PM,28.4,17.6,64,29.93,10.0,South,8.1,-,N/A,,Clear,170,2013-01-27 19:13:00
1:33 PM,28.4,17.6,64,29.92,10.0,SSE,6.9,-,N/A,,Clear,150,2013-01-27 19:33:00
1:53 PM,28.4,17.6,64,29.92,10.0,SSE,9.2,-,N/A,,Clear,150,2013-01-27 19:53:00
2:13 PM,30.2,19.4,64,29.91,10.0,SSE,8.1,-,N/A,,Mostly Cloudy,160,2013-01-27 20:13:00
2:32 PM,30.2,19.4,64,29.91,10.0,SSE,8.1,-,N/A,,Scattered Clouds,160,2013-01-27 20:32:00
2:53 PM,28.4,19.4,69,29.91,10.0,SSE,6.9,-,N/A,,Clear,160,2013-01-27 20:53:00
3:13 PM,28.4,19.4,69,29.91,10.0,SSE,8.1,-,N/A,,Scattered Clouds,160,2013-01-27 21:13:00
3:32 PM,28.4,19.4,69,29.91,10.0,SSE,6.9,-,N/A,,Scattered Clouds,150,2013-01-27 21:32:00
3:53 PM,28.4,19.4,69,29.90,10.0,SSE,8.1,-,N/A,,Mostly Cloudy,150,2013-01-27 21:53:00
4:13 PM,28.4,19.4,69,29.89,10.0,SSE,8.1,-,N/A,,Overcast,150,2013-01-27 22:13:00
4:33 PM,28.4,19.4,69,29.89,10.0,SE,8.1,-,N/A,,Overcast,140,2013-01-27 22:33:00
4:53 PM,28.4,19.4,69,29.89,10.0,SE,5.8,-,N/A,,Overcast,130,2013-01-27 22:53:00
5:12 PM,26.6,19.4,74,29.88,10.0,SE,5.8,-,N/A,,Mostly Cloudy,140,2013-01-27 23:12:00
5:33 PM,26.6,19.4,74,29.88,10.0,ESE,3.5,-,N/A,,Scattered Clouds,110,2013-01-27 23:33:00
5:53 PM,26.6,19.4,74,29.88,10.0,Calm,Calm,-,N/A,,Overcast,0,2013-01-27 23:53:00
6:12 PM,26.6,19.4,74,29.87,10.0,SE,6.9,-,N/A,,Overcast,130,2013-01-28 00:12:00
6:33 PM,26.6,19.4,74,29.87,10.0,SE,8.1,-,N/A,,Overcast,130,2013-01-28 00:33:00
6:53 PM,26.6,19.4,74,29.87,10.0,SE,6.9,-,N/A,,Overcast,130,2013-01-28 00:53:00
7:12 PM,26.6,19.4,74,29.87,10.0,SE,8.1,-,N/A,,Overcast,140,2013-01-28 01:12:00
7:33 PM,26.6,19.4,74,29.86,10.0,SE,3.5,-,N/A,,Overcast,130,2013-01-28 01:33:00
7:52 PM,26.6,19.4,74,29.86,10.0,SE,5.8,-,N/A,,Mostly Cloudy,130,2013-01-28 01:52:00
8:13 PM,26.6,21.2,80,29.85,10.0,SE,5.8,-,N/A,,Overcast,130,2013-01-28 02:13:00
8:33 PM,26.6,21.2,80,29.84,10.0,SE,5.8,-,N/A,,Overcast,130,2013-01-28 02:33:00
8:52 PM,26.6,21.2,80,29.84,10.0,SE,4.6,-,N/A,,Overcast,130,2013-01-28 02:52:00
9:13 PM,26.6,21.2,80,29.83,10.0,ESE,3.5,-,N/A,,Overcast,120,2013-01-28 03:13:00
9:33 PM,26.6,21.2,80,29.83,10.0,ESE,3.5,-,N/A,,Overcast,120,2013-01-28 03:33:00
9:52 PM,26.6,21.2,80,29.83,10.0,SE,3.5,-,N/A,,Overcast,130,2013-01-28 03:52:00
10:13 PM,26.6,21.2,80,29.82,10.0,SE,3.5,-,N/A,,Overcast,130,2013-01-28 04:13:00
10:33 PM,26.6,23.0,86,29.83,10.0,Calm,Calm,-,N/A,,Overcast,0,2013-01-28 04:33:00
10:52 PM,26.6,23.0,86,29.82,10.0,Calm,Calm,-,N/A,,Overcast,0,2013-01-28 04:52:00
11:13 PM,26.6,23.0,86,29.82,10.0,Calm,Calm,-,N/A,,Overcast,0,2013-01-28 05:13:00
11:33 PM,26.6,23.0,86,29.82,10.0,Calm,Calm,-,N/A,,Overcast,0,2013-01-28 05:33:00
11:52 PM,26.6,23.0,86,29.82,10.0,Calm,Calm,-,N/A,,Overcast,0,2013-01-28 05:52:00